Orangeburg, SC

4:31 AM EDT on October 22, 2017 (GMT -0400)
Orangeburg Municipal

Weather History for KOGB - October, 2010

Change the Weather History Date:

Monday, October 4, 2010

  Actual Average Record
Temperature  
Mean Temperature 64 °F 69 °F  
Max Temperature 73 °F 80 °F 94 °F (1986)
Min Temperature 54 °F 58 °F 35 °F (1974)
Degree Days  
Heating Degree Days 1 1  
Month to date heating degree days 1 4  
Since 1 July heating degree days 1 8  
Cooling Degree Days 0 5  
Month to date cooling degree days 7 23  
Year to date cooling degree days 2435 2017  
Growing Degree Days 14 (Base 50)    
Moisture  
Dew Point 50 °F    
Average Humidity 61    
Maximum Humidity 77    
Minimum Humidity 44    
Precipitation  
Precipitation 0.00 in 0.15 in 3.03 in (2015)
Month to date precipitation 0.00 0.60  
Year to date precipitation 36.41 37.70  
Sea Level Pressure  
Sea Level Pressure 30.09 in    
Wind  
Wind Speed 6 mph (NNE)    
Max Wind Speed 15 mph    
Max Gust Speed 21 mph    
Visibility 10 miles    
Events      
T = Trace of Precipitation, MM = Missing Value Source: NWS Daily Summary

Daily Weather History Graph

Daily Weather History Graph

Search for Another Location

Airport or City:

Trip Planner

Search our weather history database for the weather conditions in past years. The results will help you decide how hot, cold, wet, or windy it might be!

Date:

Astronomy

Oct. 04, 2010 Rise Set
Actual Time 7:19 AM EDT 7:03 PM EDT
Civil Twilight 6:55 AM EDT 7:28 PM EDT
Nautical Twilight 6:26 AM EDT 7:57 PM EDT
Astronomical Twilight 5:57 AM EDT 8:26 PM EDT
Moon 3:37 AM EDT (10/4) 4:53 PM EDT (10/4)
Length of Visible Light 12h 33m
Length of Day
11h 44m
Waning Crescent, 14% of the Moon is Illuminated
Oct 4
Waning Crescent
Oct 7
New
Oct 14
First Quarter
Oct 22
Full
Oct 30
Last Quarter

Hourly Weather History & Observations

Time (EDT) Temp. Dew Point Humidity Pressure Visibility Wind Dir Wind Speed Gust Speed Precip Events Conditions
12:53 AM 62.1 °F 52.0 °F 70% 30.03 in 10.0 mi NNE 8.1 mph - N/A   Mostly Cloudy
1:53 AM 61.0 °F 52.0 °F 72% 30.04 in 10.0 mi NNE 6.9 mph - N/A   Overcast
2:53 AM 61.0 °F 52.0 °F 72% 30.04 in 10.0 mi North 9.2 mph - N/A   Overcast
3:53 AM 60.1 °F 52.0 °F 75% 30.04 in 10.0 mi North 6.9 mph - N/A   Mostly Cloudy
4:53 AM 59.0 °F 51.1 °F 75% 30.04 in 10.0 mi NNE 5.8 mph - N/A   Partly Cloudy
5:53 AM 57.0 °F 48.9 °F 74% 30.06 in 10.0 mi NNE 9.2 mph - N/A   Clear
6:53 AM 55.0 °F 48.0 °F 77% 30.07 in 10.0 mi NNE 6.9 mph - N/A   Clear
7:53 AM 55.0 °F 46.9 °F 74% 30.09 in 10.0 mi NNE 5.8 mph - N/A   Clear
8:53 AM 57.9 °F 46.9 °F 67% 30.10 in 10.0 mi NNE 10.4 mph - N/A   Clear
9:53 AM 62.1 °F 48.0 °F 60% 30.12 in 10.0 mi Variable 6.9 mph 17.3 mph N/A   Clear
10:53 AM 64.0 °F 48.0 °F 56% 30.13 in 10.0 mi NE 11.5 mph - N/A   Scattered Clouds
11:53 AM 66.9 °F 48.9 °F 52% 30.12 in 10.0 mi NNE 6.9 mph - N/A   Clear
12:53 PM 69.1 °F 50.0 °F 51% 30.11 in 10.0 mi NNW 6.9 mph - N/A   Clear
1:53 PM 70.0 °F 48.9 °F 47% 30.09 in 10.0 mi ENE 8.1 mph - N/A   Mostly Cloudy
2:53 PM 71.1 °F 48.0 °F 44% 30.08 in 10.0 mi Calm Calm - N/A   Mostly Cloudy
3:53 PM 72.0 °F 48.9 °F 44% 30.07 in 10.0 mi NE 3.5 mph - N/A   Scattered Clouds
4:53 PM 72.0 °F 48.9 °F 44% 30.07 in 10.0 mi NNE 6.9 mph - N/A   Mostly Cloudy
5:53 PM 69.1 °F 50.0 °F 51% 30.08 in 10.0 mi NE 3.5 mph - N/A   Clear
6:53 PM 66.9 °F 50.0 °F 54% 30.10 in 10.0 mi North 3.5 mph - N/A   Scattered Clouds
7:53 PM 64.9 °F 51.1 °F 61% 30.12 in 10.0 mi Calm Calm - N/A   Mostly Cloudy
8:53 PM 64.9 °F 51.1 °F 61% 30.13 in 10.0 mi North 4.6 mph - N/A   Overcast
9:53 PM 63.0 °F 51.1 °F 65% 30.14 in 10.0 mi North 3.5 mph - N/A   Scattered Clouds
10:53 PM 63.0 °F 50.0 °F 63% 30.15 in 10.0 mi North 6.9 mph - N/A   Mostly Cloudy
11:53 PM 62.1 °F 50.0 °F 65% 30.14 in 10.0 mi North 4.6 mph - N/A   Overcast